Location: Moscow
(55.7500°N, 37.5830°E)
Time: 11:43:30
(UTC+03:00)

A-11 Canister half - Pass Details

Date: 08 December 2021
Orbit: 1516 x 1684 km, 47.2° (Epoch: 24 January)

Event Time Altitude Azimuth Distance (km) Brightness Sun altitude
Rises 08:49:00 0° 252° (WSW) 4,784 11.3 -0.5°
Reaches altitude 10° 08:52:09 10° 248° (WSW) 3,822 10.9 -0.1°
Maximum altitude 09:01:29 53° 176° (S) 1,961 10.1 0.8°
Drops below altitude 10° 09:11:07 10° 103° (ESE) 3,933 12.2 1.7°
Sets 09:14:23 0° 99° (E) 4,931 12.6 2.1°
